Home   Weather   Resolute Bay   Past weeks

Flag for Canada Past Weather in Resolute Bay, Nunavut, Canada — Yesterday and Last 2 Weeks

Now
21 °F

Light snow. Mostly cloudy.


Feels Like: 5 °F
Forecast: 16 / 18 °F
Wind: 22 mph from North

Location: Resolute

Current Time: Oct 1, 2016 at 12:14:54 PM

Latest Report: Oct 1, 2016 at 11:57 AM


Visibility: 15 mi

Pressure: 30.28 "Hg

Humidity: 93%

Dew Point: 19 °F

Location of Resolute BayLocation

Past Weather in Resolute Bay — Graph

°F

Resolute Bay Temperature Yesterday

Maximum temperature yesterday: 28 °F (at 12:00 AM)
Minimum temperature yesterday: 16 °F (at 10:00 PM)
Average temperature yesterday: 22 °F

High & Low Weather Summary for the Past Weeks

 TemperatureHumidityPressure
High37 °F (Sep 24, 1:00 PM)100% (Sep 16, 1:52 PM)30.31 "Hg (Sep 16, 1:52 PM)
Low16 °F (Sep 30, 10:00 PM)27% (Sep 28, 11:00 AM)29.54 "Hg (Sep 16, 10:00 AM)
Average29 °F87%29.79 "Hg
* Reported Sep 16 10:00 AM — Oct 1 10:00 AM, Resolute Bay, Weather by CustomWeather, © 2016

Note: Actual official high and low records may vary slightly from our data, if they occured in-between our weather recording intervals... More about our weather records

Advertising

Resolute Bay Weather History for the Previous 24 Hours

Scroll right to see more
 ConditionsComfort  
Time TempWeatherWind HumidityBarometerVisibility
10:00 AM
Sat, Oct 1
19 °FMore clouds than sun.15 mph86%30.29 "Hg15 mi
9:00 AM19 °FBroken clouds.24 mph86%30.29 "Hg15 mi
8:00 AM18 °FBroken clouds.26 mph86%30.29 "Hg15 mi
7:00 AM18 °FMostly cloudy.25 mph86%30.29 "Hg15 mi
6:45 AM18 °FMostly cloudy.24 mph86%30.30 "Hg15 mi
6:00 AM16 °FPassing clouds.24 mph86%30.31 "Hg15 mi
5:00 AM18 °FPassing clouds.30 mph86%30.29 "Hg15 mi
4:00 AM18 °FPassing clouds.25 mph86%30.28 "Hg15 mi
3:00 AM18 °FPassing clouds.28 mph86%30.28 "Hg15 mi
2:00 AM18 °FClear.28 mph79%30.27 "Hg15 mi
1:00 AM16 °FClear.29 mph86%30.27 "Hg15 mi
12:00 AM16 °FClear.25 mph79%30.26 "Hg15 mi
11:00 PM
Fri, Sep 30
16 °FClear.28 mph79%30.25 "Hg15 mi
10:00 PM16 °FClear.30 mph86%30.24 "Hg15 mi
9:00 PM18 °FPassing clouds.21 mph86%30.25 "Hg15 mi
8:00 PM18 °FPassing clouds.29 mph86%30.23 "Hg15 mi
7:00 PM18 °FPassing clouds.21 mph86%30.23 "Hg15 mi
6:00 PM19 °FPassing clouds.14 mph79%30.22 "Hg15 mi
5:00 PM19 °FPassing clouds.21 mph79%30.21 "Hg15 mi
4:00 PM19 °FScattered clouds.29 mph79%30.18 "Hg15 mi
3:00 PM21 °FPassing clouds.24 mph80%30.17 "Hg15 mi
2:00 PM21 °FPassing clouds.21 mph80%30.15 "Hg15 mi
1:00 PM21 °FPassing clouds.28 mph80%30.12 "Hg15 mi
12:00 PM23 °FPassing clouds.33 mph80%30.11 "Hg15 mi
Weather by CustomWeather, © 2016

See weather overviewHow to use our weather pages